COSMOS 1133

Satellite information

Favourite Embed

Satellite Type and Status

PAYLOADIN ORBIT

Key statistics

Satellite COSMOS 1133 at a glance.

Uptime

16722

Days in orbit

Revolutions

≈ 12.5

Per day

Orbit

LEO

Low Earth Orbit

Inclination

74.0

Latest

Satellite identification and parameters

Extended collection of information and parameters for COSMOS 1133.

Object identification

Identified? True

Debris? False

Object name: COSMOS 1133

International designator: 1979-084D

Object number (NORAD): 11541

Object ID (CCSDS): 11541

Country: COMMONWEALTH OF INDEPENDENT STATES (CIS)

Current information (Y/N): Y

RCS size: MEDIUM

Orbital parameters

Period: 115.119 minutes

Inclination: 74.0251 deg

SMA: 7838.965 km

Apoapsis: 1482.765 km

Periapsis: 1438.895 km

RAAN: 28.9126 deg

Eccentricy: 0.0027982

Argument of periapsis: 169.3084 deg

Mean anomaly: 247.8828 deg

Mean motion: 12.50877246 rev/day

Mean motion (dot): -0.00000004 rev/day2

B* drag term: 0.000079312 1/REarth

Two-line elements (TLE)

Creation date: July 6, 2025, 6:05 p.m.

Reference frame: TEME

Reference center: EARTH

Epoch: July 6, 2025, 2:42 p.m. UTC

TLE line 0: 0 COSMOS 1133

TLE line 1: 1 11541U 79084D 25187.61274862 -.00000004 00000-0 79312-4 0 9990

TLE line 2: 2 11541 74.0251 28.9126 0027982 169.3084 247.8828 12.50877246 24579

Live tracking on map

Real-time ground track for satellite COSMOS 1133.

In-orbit conjunctions

A list of the most updated potential collisions computed for object COSMOS 1133.

Target Orbit TCA Probability of collision Miss distance Type
THORAD DELTA 1 DEB SSO 2025-04-18 09:58:44 0.0001276055 389.0 (m) DEBRIS

Associated space launch

Biological research satellite carrying live organisms

COSMOS 1133 was lifted into orbit during the mission ‘Soyuz U | Bion 5’, on board a Soyuz U space rocket.

The launch took place on Sept. 25, 1979, 3:30 p.m. from 41/1.

For more information about the launch, click the button.

Launch to space Soyuz U | Bion 5
Soyuz U | Bion 5

Agency: N/A

Status: Launch Successful

Launch date: Sept. 25, 1979, 3:30 p.m. UTC

Rocket: Soyuz U

Launch pad: 41/1

Location: Plesetsk Cosmodrome, Russian Federation

...

Latest news about this satellite

There are no fresh news available about this satellite. Check back as we update our databases every day.


Newsletter sign-up

Weekly statistics, charts and insights to help you stay on top of the space industry.